TimeEDT,TemperatureF,Dew PointF,Humidity,Sea Level PressureIn,VisibilityMPH,Wind Direction,Wind SpeedMPH,Gust SpeedMPH,PrecipitationIn,Events,Conditions,WindDirDegrees,DateUTC
12:53 AM,77.0,75.9,96,30.01,10.0,Calm,Calm,-,N/A,,Clear,0,2012-10-10 04:53:00
1:33 AM,77.0,75.2,94,30.02,10.0,ESE,4.6,-,N/A,,Scattered Clouds,110,2012-10-10 05:33:00
1:53 AM,78.1,75.9,93,30.01,10.0,Calm,Calm,-,N/A,,Partly Cloudy,0,2012-10-10 05:53:00
2:53 AM,75.9,75.0,97,30.00,10.0,West,3.5,-,N/A,,Partly Cloudy,280,2012-10-10 06:53:00
3:53 AM,75.9,75.0,97,29.99,9.0,Calm,Calm,-,N/A,,Partly Cloudy,0,2012-10-10 07:53:00
4:53 AM,75.0,75.0,100,29.99,10.0,Calm,Calm,-,N/A,,Clear,0,2012-10-10 08:53:00
5:53 AM,75.9,75.0,97,30.00,10.0,Calm,Calm,-,N/A,,Clear,0,2012-10-10 09:53:00
6:53 AM,77.0,75.0,94,30.01,10.0,Calm,Calm,-,0.01,,Clear,0,2012-10-10 10:53:00
7:53 AM,78.1,75.9,93,30.03,10.0,North,4.6,-,N/A,,Clear,10,2012-10-10 11:53:00
8:53 AM,82.0,75.9,82,30.04,10.0,NE,4.6,-,N/A,,Clear,50,2012-10-10 12:53:00
9:53 AM,84.0,75.0,74,30.05,10.0,North,6.9,-,N/A,,Clear,10,2012-10-10 13:53:00
10:49 AM,84.2,73.4,70,30.06,10.0,North,6.9,-,N/A,,Mostly Cloudy,350,2012-10-10 14:49:00
10:53 AM,84.9,73.9,69,30.06,10.0,NNE,5.8,-,N/A,,Mostly Cloudy,30,2012-10-10 14:53:00
11:53 AM,88.0,73.0,61,30.05,10.0,North,6.9,-,N/A,,Mostly Cloudy,360,2012-10-10 15:53:00
12:45 PM,84.2,73.4,70,30.05,10.0,East,8.1,-,N/A,,Mostly Cloudy,100,2012-10-10 16:45:00
12:53 PM,84.0,73.9,72,30.05,10.0,SE,9.2,-,N/A,,Mostly Cloudy,130,2012-10-10 16:53:00
1:24 PM,80.6,73.4,79,30.04,1.8,ENE,9.2,21.9,0.13,Rain,Heavy Rain,70,2012-10-10 17:24:00
1:30 PM,80.6,75.2,84,30.03,3.0,Variable,3.5,-,0.15,Rain,Rain,0,2012-10-10 17:30:00
1:53 PM,80.1,75.9,87,30.02,10.0,SW,6.9,-,0.17,Rain,Light Rain,220,2012-10-10 17:53:00
2:25 PM,75.2,73.4,94,30.04,1.8,NE,20.7,32.2,0.11,Rain,Heavy Rain,40,2012-10-10 18:25:00
2:33 PM,75.2,71.6,89,30.04,0.8,ENE,12.7,-,0.33,Rain,Heavy Rain,70,2012-10-10 18:33:00
2:40 PM,75.2,69.8,83,30.03,1.2,ENE,5.8,-,0.42,Rain,Heavy Rain,70,2012-10-10 18:40:00
2:50 PM,77.0,71.6,83,30.02,3.0,Calm,Calm,-,0.48,Rain,Rain,0,2012-10-10 18:50:00
2:53 PM,78.1,72.0,81,30.02,4.0,Calm,Calm,-,0.48,Rain,Rain,0,2012-10-10 18:53:00
3:53 PM,84.9,75.9,74,29.99,10.0,ENE,6.9,-,0.01,,Scattered Clouds,70,2012-10-10 19:53:00
4:53 PM,82.0,75.0,79,30.00,10.0,East,8.1,-,N/A,,Scattered Clouds,80,2012-10-10 20:53:00
5:53 PM,82.9,75.0,77,29.99,10.0,East,5.8,-,N/A,,Clear,80,2012-10-10 21:53:00
6:25 PM,82.4,73.4,74,30.01,10.0,ENE,6.9,-,0.00,Rain,Light Rain,60,2012-10-10 22:25:00
6:53 PM,78.1,73.9,87,30.01,10.0,East,8.1,-,0.01,Rain,Light Rain,100,2012-10-10 22:53:00
7:53 PM,77.0,73.9,90,30.03,10.0,ENE,4.6,-,0.00,,Clear,70,2012-10-10 23:53:00
8:53 PM,78.1,73.9,87,30.04,10.0,NE,4.6,-,N/A,,Clear,50,2012-10-11 00:53:00
9:53 PM,78.1,73.9,87,30.05,10.0,NE,4.6,-,N/A,,Clear,50,2012-10-11 01:53:00
10:53 PM,78.1,73.0,84,30.06,10.0,NNE,3.5,-,N/A,,Partly Cloudy,30,2012-10-11 02:53:00
11:53 PM,78.1,72.0,81,30.06,10.0,NE,4.6,-,N/A,,Clear,40,2012-10-11 03:53:00